Wind_Speed
29 29 28 27 27 26 25 25 24 24 23 22 22 21 21 20 20 20 19 19 19 19 19 19 18 18 18 18 18 18 18 18 18 18 18 18 18 18 18 18 18 18 18
32 31 30 30 29 28 27 26 25 25 24 23 22 22 21 21 21 21 20 20 20 20 20 20 20 20 20 20 19 20 20 20 20 20 20 21 21 20 20 20 21 20 20
34 33 32 32 31 30 29 28 27 27 26 25 25 24 23 23 22 22 21 21 22 21 21 21 21 21 21 22 21 21 22 22 22 22 21 22 23 23 23 23 23 23 22
35 34 34 34 33 33 31 30 30 29 28 28 27 26 25 25 25 24 23 23 23 23 23 22 22 23 23 23 23 23 24 24 24 24 23 23 24 24 24 25 25 24 24
37 36 35 35 35 34 33 33 32 31 30 30 29 28 28 27 27 26 26 26 26 25 25 25 24 25 25 25 25 25 25 25 25 25 26 26 25 25 26 26 26 26 25
39 38 37 38 37 36 35 35 34 33 32 32 32 31 30 29 29 28 28 28 28 27 27 27 27 27 27 27 27 27 27 28 28 27 27 27 27 27 27 28 28 28 28
41 40 39 39 39 38 36 37 36 35 34 33 33 33 32 32 31 30 30 29 29 30 30 29 29 29 29 29 29 29 29 29 30 30 29 29 29 29 30 30 30 30 30
43 43 42 41 40 40 38 37 38 37 36 36 36 35 34 33 32 31 32 31 31 31 31 31 31 31 31 32 32 32 31 31 31 31 32 32 32 32 31 32 31 31 31
43 44 43 43 43 42 41 40 40 39 38 38 38 37 36 36 33 33 33 33 33 33 33 33 33 33 33 33 34 33 33 33 33 33 34 34 34 34 34 33 33 32 33
43 43 44 44 44 43 42 42 42 42 41 41 40 40 39 38 36 35 35 35 34 34 34 35 35 35 35 35 35 35 35 35 35 35 35 35 35 35 35 35 35 35 35
44 44 45 45 45 44 43 43 43 43 42 42 42 41 40 40 38 36 36 36 36 36 36 36 37 37 38 38 38 38 37 36 36 37 37 36 36 36 36 37 37 37 37
44 44 45 46 45 45 44 43 43 43 42 41 41 42 41 41 40 39 38 38 38 38 38 38 38 39 39 40 40 39 38 38 38 38 38 38 38 38 39 39 40 40 40
44 45 45 46 46 46 45 44 43 43 43 42 42 42 43 43 42 40 40 40 39 39 39 39 39 39 40 40 40 40 40 39 39 40 40 40 40 40 40 40 41 41 42
44 45 45 45 46 46 46 45 44 44 44 44 44 43 43 44 43 41 40 40 40 41 40 40 41 40 40 40 41 41 41 40 40 41 41 42 42 43 43 43 43 45 45
44 44 45 45 46 47 47 46 45 45 45 45 45 45 45 45 44 43 42 41 41 42 41 41 42 43 43 43 42 42 42 42 42 43 44 44 44 44 45 45 45 46 47
45 44 45 47 48 48 48 47 46 46 46 45 45 45 45 46 45 44 44 43 43 42 43 43 43 43 43 43 43 43 44 44 45 45 46 46 46 46 46 46 47 48 49
45 45 45 46 47 48 48 48 47 46 47 47 46 46 46 45 46 47 45 44 44 44 44 44 44 44 44 44 44 45 45 46 46 47 47 48 48 49 49 49 50 50 51
46 46 46 45 46 47 48 48 48 47 47 47 47 48 49 48 48 48 48 47 46 46 45 45 45 46 46 46 46 46 47 47 48 49 50 50 51 51 52 53 53 54 54
46 47 47 47 46 46 48 49 49 48 48 48 48 49 50 50 49 49 50 50 48 47 47 47 47 47 48 48 49 49 49 50 50 51 52 52 52 53 54 55 56 56 57
47 48 49 48 48 47 48 48 50 49 49 49 50 50 50 51 49 49 49 50 49 49 48 48 48 48 48 49 50 51 51 52 52 53 54 55 55 55 55 56 57 57 58
48 49 50 50 49 49 49 50 51 51 51 50 50 50 50 51 50 50 49 50 50 50 50 49 49 50 51 51 51 52 53 53 54 55 55 56 56 56 56 57 57 57 57
48 49 50 51 51 51 53 53 53 52 52 52 51 51 50 50 50 50 50 50 50 50 51 51 51 51 52 53 53 54 54 55 55 55 55 55 56 56 56 57 57 57 57
46 47 49 51 52 52 53 54 53 53 54 52 51 51 50 50 50 49 50 50 51 52 52 52 52 53 54 54 55 56 56 57 56 56 56 55 55 55 56 56 56 57 56
45 46 46 48 49 50 51 52 52 52 52 51 51 51 50 50 50 51 51 52 52 52 53 54 55 55 56 57 57 57 58 57 57 56 56 56 56 55 54 55 56 56 56
44 45 46 46 47 48 49 49 50 50 51 50 50 50 50 51 51 52 52 52 53 54 55 56 57 57 58 58 58 58 57 58 57 56 57 57 57 56 55 56 56 57 57
42 43 43 44 45 46 47 47 48 49 50 49 49 49 50 51 51 52 53 54 54 55 56 56 57 58 57 57 57 57 58 58 58 57 57 58 57 57 56 55 56 57 57
Wind_Direction
242 243 242 242 243 245 246 249 250 251 252 254 256 258 257 256 257 256 258 261 263 265 267 269 271 274 277 278 280 282 284 286 288 290 291 292 293 296 300 303 305 308 312
243 243 242 241 242 244 245 247 250 250 251 251 253 256 256 254 254 254 257 260 263 266 267 268 270 273 276 279 280 280 282 285 287 288 289 289 290 292 294 297 301 302 306
243 243 241 241 242 244 245 247 250 250 249 251 252 254 254 254 254 253 256 260 262 265 267 268 269 272 275 277 279 281 282 283 284 287 289 290 289 290 291 293 297 298 300
242 243 242 241 242 243 245 248 249 249 249 250 252 252 253 254 254 254 257 259 261 263 266 268 269 272 275 278 280 282 283 284 284 285 287 289 289 288 288 290 293 295 297
242 242 243 242 243 244 245 247 248 248 249 250 250 251 253 252 252 254 257 258 259 261 264 267 269 271 275 277 279 281 283 283 285 285 285 287 286 286 287 289 291 293 294
241 241 242 242 242 244 246 247 247 248 248 249 249 251 251 251 251 255 257 258 259 261 263 265 267 270 273 277 278 280 281 281 283 285 285 285 285 284 286 288 290 291 292
241 241 242 243 243 245 246 245 246 247 248 249 249 250 250 250 252 256 257 259 262 261 263 265 267 268 272 275 278 280 282 282 283 283 283 284 285 285 285 287 289 289 290
242 241 243 243 244 245 246 246 246 247 248 249 249 249 249 250 253 256 258 261 262 263 263 264 266 268 270 273 276 279 281 282 282 283 283 284 285 285 286 286 288 289 289
244 243 243 245 246 246 247 247 248 249 248 248 248 248 249 250 254 256 258 260 262 262 264 265 267 268 270 272 275 277 280 281 281 283 284 285 284 284 285 285 287 288 288
244 244 244 245 246 246 247 247 248 250 250 248 248 248 249 251 254 256 258 259 260 262 264 265 266 267 269 272 274 277 278 279 280 282 283 284 284 284 284 284 286 286 287
245 244 245 245 245 246 247 247 248 250 251 250 248 248 249 251 253 256 257 259 260 261 263 265 267 268 269 271 273 275 277 278 279 280 281 282 282 283 283 284 285 286 287
245 245 245 244 244 245 246 247 248 249 250 250 248 249 251 252 254 255 257 259 260 262 264 266 268 269 270 271 273 275 276 277 278 279 280 281 282 283 284 284 284 285 286
245 245 245 244 245 244 245 247 247 248 248 249 249 250 252 253 255 256 257 258 260 262 264 266 267 269 269 270 272 273 275 276 278 278 279 281 282 283 283 283 284 284 285
246 246 246 245 244 244 245 246 246 247 248 249 249 251 253 254 256 257 257 259 261 263 264 266 266 268 270 271 272 273 275 276 277 278 279 280 282 283 283 283 283 284 285
247 248 248 247 245 244 244 245 246 247 248 248 248 250 253 254 255 257 258 260 262 263 264 266 267 269 271 272 274 275 276 277 277 277 278 279 281 282 283 283 284 285 285
248 250 250 248 246 245 245 245 246 247 248 248 249 251 253 254 255 256 257 260 262 264 264 266 267 270 271 273 274 276 278 279 279 279 278 279 280 281 282 282 283 284 285
247 249 250 249 247 245 246 247 247 248 248 249 250 252 253 254 255 256 256 259 261 263 264 265 268 269 270 273 274 276 278 278 279 279 279 279 280 280 281 282 283 283 285
247 248 249 249 247 245 246 247 248 248 248 249 251 251 252 253 255 255 256 258 261 263 264 265 268 269 270 272 274 275 277 279 279 279 281 280 280 281 281 282 282 283 284
247 247 247 247 247 247 246 247 248 248 249 250 251 252 253 253 254 256 257 258 261 263 265 267 268 270 270 272 274 275 278 279 280 280 281 281 281 281 281 282 282 282 283
248 247 247 247 247 248 248 248 248 250 250 250 251 251 252 253 255 256 257 260 262 264 267 267 268 270 271 274 275 276 278 279 280 280 281 280 280 281 281 282 282 283 284
248 248 247 247 248 248 248 249 249 251 250 250 251 251 252 253 255 256 258 260 263 265 267 268 269 271 273 275 277 278 278 279 279 280 280 281 280 280 280 281 282 283 284
249 249 249 248 248 248 249 250 250 252 251 252 252 251 252 254 255 257 259 261 263 265 267 269 271 273 275 277 278 279 280 280 280 281 281 281 281 281 281 282 283 284 285
249 250 250 249 249 249 249 249 250 252 252 253 252 252 253 255 256 257 259 261 263 266 269 271 273 275 276 278 279 280 281 281 282 282 282 282 281 281 282 283 283 285 285
251 252 252 251 250 249 249 249 249 251 252 253 252 253 254 255 256 258 260 263 265 268 270 272 274 276 277 279 279 280 280 281 282 282 283 283 282 282 282 282 284 285 285
251 251 250 250 250 249 249 249 249 250 251 252 253 254 255 257 259 261 263 265 267 270 272 274 275 277 278 279 280 280 281 282 282 283 283 284 284 283 282 283 284 284 285
252 252 251 251 251 250 249 249 249 251 252 254 254 256 258 259 261 263 265 266 268 271 272 274 276 277 278 278 279 279 280 282 283 283 284 284 284 283 283 282 283 283 284
Height
5815 5818 5821 5823 5826 5828 5830 5832 5834 5836 5837 5839 5840 5841 5843 5844 5846 5847 5849 5850 5851 5852 5853 5853 5854 5854 5854 5854 5854 5855 5854 5854 5854 5853 5853 5853 5852 5851 5850 5850 5849 5848 5847
5809 5811 5814 5817 5820 5822 5825 5827 5828 5830 5831 5833 5835 5836 5837 5839 5841 5843 5844 5846 5847 5848 5848 5849 5850 5850 5850 5850 5850 5851 5850 5850 5850 5849 5849 5848 5848 5847 5847 5846 5845 5844 5843
5802 5805 5808 5811 5814 5816 5818 5820 5822 5824 5826 5828 5829 5831 5832 5834 5836 5838 5840 5841 5842 5843 5844 5845 5845 5846 5846 5846 5846 5846 5846 5846 5845 5845 5845 5844 5843 5843 5842 5841 5841 5840 5839
5794 5798 5801 5804 5806 5809 5812 5814 5816 5818 5820 5822 5824 5826 5827 5829 5831 5833 5834 5836 5837 5838 5839 5840 5840 5841 5841 5841 5841 5841 5841 5841 5840 5840 5840 5839 5838 5838 5837 5836 5836 5835 5834
5787 5790 5794 5797 5799 5802 5805 5807 5809 5811 5813 5816 5818 5820 5822 5823 5825 5827 5829 5830 5832 5833 5834 5834 5835 5835 5836 5836 5836 5836 5836 5835 5835 5834 5834 5833 5833 5832 5831 5831 5830 5830 5829
5778 5782 5786 5789 5792 5795 5798 5800 5802 5804 5807 5809 5811 5813 5815 5817 5819 5820 5822 5824 5826 5827 5828 5828 5829 5830 5830 5830 5830 5830 5829 5829 5829 5829 5828 5827 5827 5826 5825 5825 5824 5824 5823
5770 5774 5777 5781 5784 5787 5789 5792 5795 5797 5800 5802 5804 5806 5808 5810 5812 5814 5816 5817 5819 5820 5821 5822 5823 5823 5824 5824 5824 5824 5823 5823 5823 5822 5821 5821 5820 5820 5819 5818 5818 5817 5816
5761 5765 5769 5772 5776 5779 5781 5784 5787 5790 5792 5794 5797 5799 5801 5804 5805 5807 5809 5811 5812 5813 5814 5814 5815 5816 5817 5817 5817 5817 5817 5816 5815 5815 5814 5814 5813 5813 5812 5811 5811 5810 5809
5752 5756 5760 5763 5766 5770 5773 5776 5778 5781 5784 5787 5789 5792 5794 5796 5798 5800 5802 5803 5804 5805 5806 5807 5808 5809 5809 5810 5810 5810 5809 5809 5808 5808 5807 5806 5805 5805 5804 5804 5803 5802 5802
5742 5746 5750 5754 5757 5761 5764 5767 5770 5773 5775 5778 5781 5783 5786 5788 5791 5792 5794 5795 5796 5798 5799 5800 5801 5801 5802 5802 5803 5802 5802 5801 5800 5800 5799 5798 5797 5797 5796 5796 5795 5794 5794
5733 5736 5740 5744 5747 5751 5754 5758 5761 5764 5767 5770 5772 5774 5777 5780 5782 5784 5786 5788 5789 5790 5791 5792 5793 5793 5794 5794 5794 5794 5794 5793 5792 5792 5791 5790 5789 5788 5788 5787 5787 5786 5785
5722 5726 5730 5733 5737 5741 5744 5748 5751 5754 5758 5761 5763 5766 5769 5771 5773 5775 5777 5779 5780 5782 5782 5783 5784 5785 5785 5785 5785 5785 5785 5785 5784 5783 5782 5781 5781 5780 5779 5778 5777 5776 5775
5712 5716 5719 5723 5727 5731 5735 5738 5741 5745 5748 5751 5754 5757 5760 5762 5764 5766 5768 5770 5771 5773 5774 5775 5775 5776 5776 5776 5776 5776 5776 5775 5775 5774 5773 5772 5772 5771 5770 5769 5767 5766 5765
5701 5705 5708 5712 5716 5720 5724 5728 5732 5735 5738 5741 5744 5747 5750 5752 5754 5756 5758 5760 5761 5763 5765 5766 5766 5766 5767 5767 5767 5767 5766 5766 5765 5764 5763 5763 5762 5761 5760 5759 5757 5756 5755
5691 5695 5698 5701 5706 5710 5713 5717 5721 5725 5728 5731 5734 5737 5740 5742 5744 5746 5748 5750 5752 5754 5755 5756 5756 5757 5757 5757 5757 5757 5756 5756 5755 5754 5753 5752 5751 5750 5749 5748 5747 5745 5744
5681 5684 5687 5691 5695 5699 5703 5707 5710 5714 5718 5721 5724 5727 5729 5731 5733 5735 5738 5740 5742 5743 5745 5746 5747 5747 5747 5746 5746 5746 5746 5745 5744 5743 5742 5741 5740 5739 5738 5737 5735 5734 5732
5670 5673 5677 5680 5683 5687 5691 5696 5699 5703 5707 5710 5713 5716 5718 5720 5723 5725 5727 5729 5731 5732 5734 5736 5736 5736 5736 5736 5735 5735 5734 5734 5733 5732 5730 5729 5728 5727 5726 5724 5723 5721 5719
5659 5663 5666 5669 5673 5676 5681 5685 5688 5692 5695 5698 5701 5705 5708 5710 5712 5715 5717 5718 5720 5721 5723 5724 5725 5725 5725 5724 5724 5724 5723 5722 5721 5719 5718 5717 5715 5714 5712 5711 5709 5707 5705
5648 5652 5655 5659 5663 5666 5670 5674 5678 5681 5684 5687 5690 5693 5696 5699 5701 5703 5705 5707 5709 5710 5711 5712 5713 5713 5713 5713 5713 5712 5711 5710 5708 5706 5705 5703 5702 5700 5697 5696 5694 5691 5689
5637 5640 5644 5648 5651 5655 5659 5663 5667 5670 5673 5675 5678 5681 5684 5687 5690 5692 5694 5696 5697 5698 5699 5700 5701 5701 5700 5700 5700 5699 5698 5697 5695 5693 5691 5689 5687 5685 5682 5680 5678 5676 5673
5625 5629 5632 5636 5640 5644 5648 5651 5655 5658 5661 5664 5666 5669 5672 5675 5678 5680 5682 5684 5685 5686 5687 5687 5688 5688 5688 5687 5686 5685 5684 5683 5681 5679 5677 5675 5672 5671 5667 5665 5662 5660 5657
5613 5617 5620 5624 5628 5632 5636 5639 5643 5647 5649 5652 5655 5658 5661 5663 5666 5668 5670 5671 5672 5673 5674 5675 5675 5675 5674 5673 5671 5670 5668 5668 5667 5665 5662 5660 5657 5655 5652 5649 5646 5643 5641
5601 5604 5608 5611 5615 5619 5623 5627 5631 5634 5638 5641 5643 5646 5648 5651 5653 5655 5657 5658 5659 5660 5661 5661 5661 5660 5660 5658 5656 5655 5653 5651 5650 5648 5645 5645 5642 5640 5637 5633 5630 5627 5624
5589 5592 5595 5598 5602 5606 5610 5614 5618 5621 5625 5628 5631 5634 5636 5638 5640 5642 5644 5645 5646 5646 5647 5647 5646 5645 5644 5642 5640 5639 5637 5636 5634 5631 5628 5628 5627 5624 5621 5617 5613 5610 5607
5577 5580 5583 5586 5589 5593 5597 5601 5605 5608 5612 5615 5618 5620 5622 5625 5627 5628 5630 5631 5632 5632 5631 5631 5630 5629 5628 5626 5624 5622 5621 5619 5618 5617 5613 5611 5610 5608 5606 5603 5598 5594 5591
5566 5568 5571 5574 5578 5581 5584 5588 5592 5596 5600 5603 5605 5607 5609 5611 5612 5613 5614 5616 5617 5617 5617 5616 5615 5613 5612 5610 5608 5606 5604 5602 5601 5600 5597 5594 5592 5589 5589 5589 5584 5580 5576